{"data":{"norad_id":48864,"epoch":"2026-05-24T21:43:22.308384Z","epoch_age_seconds":79101,"freshness":"FRESH","line1":"1 48864U 21055E   26144.90511931  .00004847  00000+0  26769-3 0  9994","line2":"2 48864  34.9985 222.7519 0004390 117.6170 242.4988 15.13328674270193","mean_motion":15.13328674,"eccentricity":0.000439,"inclination_deg":34.9985,"raan_deg":222.7519,"arg_perigee_deg":117.617,"mean_anomaly_deg":242.4988,"bstar":0.00026769,"rev_number":27019,"period_min":95.154477988831,"perigee_km":523.02629071984,"apogee_km":529.08817325553,"semimajor_km":6904.1942319877,"source":"CELESTRAK","updated_at":"2026-05-25T13:37:56.974352Z"}}